Previsão horária em Allentaun

Hoje, 16 Junho, Quarta-feira

Tempo Temperatura Precipitação Vento Pressão Humidade
00:00 +15°C° 0 mm 2 m/s 748 mmHg 85%
01:00 +14°C° 0 mm 2 m/s 748 mmHg 86%
02:00 +14°C° 0 mm 2 m/s 748 mmHg 87%
03:00 +13°C° 0 mm 1 m/s 748 mmHg 87%
04:00 +13°C° 0 mm 1 m/s 748 mmHg 87%
05:00 +14°C° 0 mm 2 m/s 749 mmHg 82%
06:00 +15°C° 0 mm 2 m/s 749 mmHg 76%
07:00 +17°C° 0 mm 3 m/s 750 mmHg 71%
08:00 +18°C° 0 mm 4 m/s 750 mmHg 62%
09:00 +19°C° 0 mm 4 m/s 750 mmHg 52%
10:00 +21°C° 0 mm 5 m/s 750 mmHg 43%
11:00 +22°C° 0 mm 4 m/s 750 mmHg 41%
12:00 +22°C° 0 mm 4 m/s 750 mmHg 38%
13:00 +23°C° 0 mm 4 m/s 750 mmHg 36%
14:00 +23°C° 0 mm 4 m/s 750 mmHg 39%
15:00 +24°C° 0 mm 3 m/s 750 mmHg 42%
16:00 +24°C° 0 mm 3 m/s 750 mmHg 45%
17:00 +21°C° 0 mm 3 m/s 750 mmHg 52%
18:00 +19°C° 0 mm 3 m/s 750 mmHg 59%
19:00 +17°C° 0 mm 2 m/s 751 mmHg 66%
20:00 +16°C° 0 mm 2 m/s 751 mmHg 66%
21:00 +14°C° 0 mm 2 m/s 751 mmHg 66%
22:00 +13°C° 0 mm 2 m/s 752 mmHg 66%
23:00 +12°C° 0 mm 2 m/s 752 mmHg 67%

Amanhã, 17 Junho, Quinta-feira

Tempo Temperatura Precipitação Vento Pressão Humidade
00:00 +12°C° 0 mm 1 m/s 752 mmHg 67%
01:00 +11°C° 0 mm 1 m/s 752 mmHg 67%
02:00 +10°C° 0 mm 1 m/s 752 mmHg 68%
03:00 +10°C° 0 mm 1 m/s 752 mmHg 69%
04:00 +9°C° 0 mm 1 m/s 752 mmHg 70%
05:00 +11°C° 0 mm 1 m/s 752 mmHg 68%
06:00 +13°C° 0 mm 1 m/s 752 mmHg 65%
07:00 +14°C° 0 mm 1 m/s 752 mmHg 63%
08:00 +16°C° 0 mm 1 m/s 753 mmHg 57%
09:00 +20°C° 0 mm 1 m/s 753 mmHg 50%
10:00 +21°C° 0 mm 2 m/s 753 mmHg 44%
11:00 +23°C° 0 mm 2 m/s 753 mmHg 42%
12:00 +24°C° 0 mm 2 m/s 753 mmHg 39%
13:00 +24°C° 0 mm 2 m/s 752 mmHg 36%
14:00 +25°C° 0 mm 2 m/s 752 mmHg 38%
15:00 +25°C° 0 mm 2 m/s 752 mmHg 40%
16:00 +25°C° 0 mm 2 m/s 752 mmHg 42%
17:00 +23°C° 0 mm 2 m/s 752 mmHg 51%
18:00 +20°C° 0 mm 2 m/s 752 mmHg 60%
19:00 +18°C° 0 mm 2 m/s 752 mmHg 68%
20:00 +18°C° 0 mm 1 m/s 753 mmHg 69%
21:00 +16°C° 0 mm 1 m/s 753 mmHg 69%
22:00 +14°C° 0 mm 1 m/s 753 mmHg 70%
23:00 +14°C° 0 mm 1 m/s 754 mmHg 70%

Depois de amanhã, 18 Junho, Sexta-feira

Tempo Temperatura Precipitação Vento Pressão Humidade
00:00 +13°C° 0 mm 1 m/s 754 mmHg 71%
01:00 +13°C° 0 mm 1 m/s 754 mmHg 72%
02:00 +11°C° 0 mm 0 m/s 754 mmHg 73%
03:00 +11°C° 0 mm 0 m/s 754 mmHg 73%
04:00 +11°C° 0 mm 0 m/s 754 mmHg 74%
05:00 +12°C° 0 mm 0 m/s 754 mmHg 72%
06:00 +14°C° 0 mm 0 m/s 754 mmHg 69%
07:00 +16°C° 0 mm 0 m/s 754 mmHg 67%
08:00 +20°C° 0 mm 1 m/s 754 mmHg 63%
09:00 +20°C° 0 mm 2 m/s 754 mmHg 59%
10:00 +23°C° 0 mm 2 m/s 754 mmHg 55%
11:00 +24°C° 0 mm 3 m/s 753 mmHg 53%
12:00 +25°C° 0 mm 3 m/s 753 mmHg 50%
13:00 +26°C° 0 mm 4 m/s 753 mmHg 48%
14:00 +26°C° 0 mm 4 m/s 752 mmHg 52%
15:00 +26°C° 0 mm 3 m/s 751 mmHg 55%
16:00 +26°C° 0 mm 3 m/s 750 mmHg 59%
17:00 +24°C° 0 mm 3 m/s 750 mmHg 62%
18:00 +23°C° 0 mm 2 m/s 750 mmHg 66%
19:00 +21°C° 0 mm 2 m/s 750 mmHg 70%
20:00 +20°C° 0 mm 2 m/s 750 mmHg 69%
21:00 +20°C° 0 mm 3 m/s 749 mmHg 69%
22:00 +20°C° 0 mm 3 m/s 749 mmHg 69%
23:00 +19°C° 0 mm 3 m/s 749 mmHg 74%

19 Junho, Sábado

Tempo Temperatura Precipitação Vento Pressão Humidade
00:00 +18°C° 0 mm 2 m/s 748 mmHg 79%
01:00 +17°C° 0 mm 2 m/s 748 mmHg 84%
02:00 +18°C° 0 mm 1 m/s 747 mmHg 86%
03:00 +18°C° 0 mm 1 m/s 747 mmHg 89%
04:00 +18°C° 0 mm 1 m/s 747 mmHg 91%
05:00 +18°C° 0 mm 2 m/s 747 mmHg 88%
06:00 +19°C° 0 mm 2 m/s 747 mmHg 85%
07:00 +21°C° 0 mm 3 m/s 747 mmHg 81%
08:00 +23°C° 0 mm 4 m/s 747 mmHg 77%
09:00 +26°C° 0 mm 4 m/s 747 mmHg 73%
10:00 +28°C° 0 mm 5 m/s 746 mmHg 68%
11:00 +28°C° 0.2 mm 5 m/s 746 mmHg 68%
12:00 +28°C° 0.2 mm 5 m/s 746 mmHg 68%
13:00 +29°C° 0.2 mm 5 m/s 745 mmHg 68%
14:00 +29°C° 0.1 mm 6 m/s 745 mmHg 66%
15:00 +29°C° 0.1 mm 6 m/s 745 mmHg 64%
16:00 +29°C° 0.1 mm 6 m/s 744 mmHg 62%
17:00 +28°C° 0.1 mm 5 m/s 745 mmHg 65%
18:00 +26°C° 0.1 mm 4 m/s 745 mmHg 69%
19:00 +24°C° 0.1 mm 3 m/s 745 mmHg 72%
20:00 +21°C° 0 mm 2 m/s 746 mmHg 74%
21:00 +21°C° 0 mm 1 m/s 746 mmHg 76%
22:00 +19°C° 0 mm 1 m/s 747 mmHg 77%
23:00 +18°C° 0 mm 1 m/s 747 mmHg 79%

20 Junho, Domingo

Tempo Temperatura Precipitação Vento Pressão Humidade
00:00 +16°C° 0 mm 1 m/s 747 mmHg 81%
01:00 +16°C° 0 mm 1 m/s 747 mmHg 82%
02:00 +15°C° 0 mm 2 m/s 747 mmHg 84%
03:00 +15°C° 0 mm 2 m/s 747 mmHg 86%
04:00 +14°C° 0 mm 2 m/s 747 mmHg 87%
05:00 +16°C° 0 mm 3 m/s 748 mmHg 83%
06:00 +17°C° 0 mm 4 m/s 748 mmHg 79%
07:00 +18°C° 0 mm 4 m/s 749 mmHg 75%
08:00 +20°C° 0 mm 4 m/s 749 mmHg 69%
09:00 +21°C° 0 mm 4 m/s 749 mmHg 63%
10:00 +23°C° 0 mm 4 m/s 749 mmHg 57%
11:00 +25°C° 0 mm 4 m/s 749 mmHg 55%
12:00 +26°C° 0 mm 4 m/s 748 mmHg 52%
13:00 +27°C° 0 mm 4 m/s 748 mmHg 49%
14:00 +28°C° 0 mm 4 m/s 748 mmHg 51%
15:00 +28°C° 0 mm 3 m/s 748 mmHg 52%
16:00 +28°C° 0 mm 3 m/s 748 mmHg 54%
17:00 +27°C° 0 mm 3 m/s 748 mmHg 61%
18:00 +25°C° 0 mm 3 m/s 748 mmHg 68%
19:00 +23°C° 0 mm 2 m/s 748 mmHg 75%
20:00 +21°C° 0 mm 2 m/s 749 mmHg 77%
21:00 +21°C° 0 mm 1 m/s 749 mmHg 79%
22:00 +20°C° 0 mm 1 m/s 749 mmHg 81%
23:00 +17°C° 0 mm 0 m/s 749 mmHg 82%

21 Junho, Segunda-feira

Tempo Temperatura Precipitação Vento Pressão Humidade
00:00 +17°C° 0 mm 0 m/s 749 mmHg 83%
01:00 +16°C° 0 mm 0 m/s 749 mmHg 84%
02:00 +16°C° 0 mm 0 m/s 749 mmHg 84%
03:00 +16°C° 0 mm 0 m/s 749 mmHg 84%
04:00 +16°C° 0 mm 0 m/s 749 mmHg 84%
05:00 +18°C° 0 mm 0 m/s 749 mmHg 81%
06:00 +21°C° 0 mm 1 m/s 749 mmHg 78%
07:00 +22°C° 0 mm 1 m/s 749 mmHg 76%
08:00 +24°C° 0 mm 2 m/s 749 mmHg 76%
09:00 +25°C° 0 mm 2 m/s 748 mmHg 77%
10:00 +27°C° 0 mm 3 m/s 748 mmHg 78%
11:00 +28°C° 0 mm 3 m/s 747 mmHg 72%
12:00 +30°C° 0 mm 4 m/s 747 mmHg 66%
13:00 +33°C° 0 mm 5 m/s 746 mmHg 60%
14:00 +32°C° 0.2 mm 4 m/s 746 mmHg 63%
15:00 +32°C° 0.2 mm 4 m/s 746 mmHg 67%
16:00 +32°C° 0.2 mm 4 m/s 745 mmHg 70%
17:00 +29°C° 0.8 mm 4 m/s 745 mmHg 77%
18:00 +27°C° 0.8 mm 3 m/s 745 mmHg 84%
19:00 +26°C° 0.8 mm 3 m/s 745 mmHg 90%
20:00 +25°C° 0.4 mm 3 m/s 745 mmHg 92%
21:00 +24°C° 0.4 mm 3 m/s 745 mmHg 94%
22:00 +24°C° 0.4 mm 3 m/s 745 mmHg 95%
23:00 +23°C° 0.2 mm 4 m/s 745 mmHg 96%
Mostrar mais